Telluride, CO

5:30 AM MDT on March 23, 2017 (GMT -0600)
Telluride Regional

Weather History for KTEX - June, 2014

Change the Weather History Date:

Monday, June 16, 2014

  Actual Average Record
Temperature  
Mean Temperature 58 °F -  
Max Temperature 64 °F 67 °F 78 °F (2007)
Min Temperature 51 °F 41 °F 35 °F (2006)
Degree Days  
Heating Degree Days 8    
Growing Degree Days 8 (Base 50)    
Moisture  
Dew Point 8 °F    
Average Humidity 14    
Maximum Humidity 18    
Minimum Humidity 10    
Precipitation  
Precipitation 0.00 in - - ()
Sea Level Pressure  
Sea Level Pressure 30.14 in    
Wind  
Wind Speed 10 mph (SSE)    
Max Wind Speed 22 mph    
Max Gust Speed 41 mph    
Visibility 10 miles    
Events      
Averages and records for this station are not official NWS values.
T = Trace of Precipitation, MM = Missing Value Source: NWS Daily Summary

Daily Weather History Graph

Daily Weather History Graph

Search for Another Location

Airport or City:

Trip Planner

Search our weather history database for the weather conditions in past years. The results will help you decide how hot, cold, wet, or windy it might be!

Date:

Astronomy

Jun. 16, 2014 Rise Set
Actual Time 5:48 AM MDT 8:36 PM MDT
Civil Twilight 5:17 AM MDT 9:07 PM MDT
Nautical Twilight 4:37 AM MDT 9:46 PM MDT
Astronomical Twilight 3:53 AM MDT 10:31 PM MDT
Moon 11:33 PM MDT (6/16) 9:52 AM MDT (6/16)
Length of Visible Light 15h 50m
Length of Day
14h 47m
Waning Gibbous, 82% of the Moon is Illuminated
Jun 16
Waning Gibbous
Jun 19
Last Quarter
Jun 27
New
Jul 5
First Quarter
Jul 12
Full

Hourly Weather History & Observations

Time (MDT) Temp. Dew Point Humidity Pressure Visibility Wind Dir Wind Speed Gust Speed Precip Events Conditions
12:17 AM 59.0 °F 8.6 °F 14% 30.13 in 10.0 mi SE 9.2 mph - N/A   Clear
12:37 AM 59.0 °F 10.4 °F 15% 30.13 in 10.0 mi SE 9.2 mph 20.7 mph N/A   Clear
1:00 AM 57.2 °F 10.4 °F 16% 30.13 in 10.0 mi ESE 5.8 mph - N/A   Clear
1:17 AM 55.4 °F 10.4 °F 17% 30.13 in 10.0 mi SE 6.9 mph - N/A   Clear
1:37 AM 55.4 °F 10.4 °F 17% 30.13 in 10.0 mi ESE 13.8 mph - N/A   Clear
1:59 AM 55.4 °F 8.6 °F 15% 30.13 in 10.0 mi ESE 10.4 mph - N/A   Clear
2:17 AM 55.4 °F 8.6 °F 15% 30.13 in 10.0 mi ESE 8.1 mph - N/A   Clear
2:39 AM 55.4 °F 8.6 °F 15% 30.12 in 10.0 mi SE 9.2 mph - N/A   Clear
2:57 AM 55.4 °F 8.6 °F 15% 30.12 in 10.0 mi SE 11.5 mph 17.3 mph N/A   Clear
3:17 AM 55.4 °F 8.6 °F 15% 30.12 in 10.0 mi SSE 9.2 mph - N/A   Clear
3:37 AM 55.4 °F 8.6 °F 15% 30.12 in 10.0 mi SSE 12.7 mph 20.7 mph N/A   Clear
3:57 AM 53.6 °F 8.6 °F 16% 30.12 in 10.0 mi SE 12.7 mph 19.6 mph N/A   Clear
4:17 AM 53.6 °F 8.6 °F 16% 30.12 in 10.0 mi South 10.4 mph 26.5 mph N/A   Clear
4:37 AM 53.6 °F 6.8 °F 15% 30.14 in 10.0 mi SE 5.8 mph 17.3 mph N/A   Clear
4:58 AM 51.8 °F 8.6 °F 18% 30.15 in 10.0 mi East 5.8 mph - N/A   Clear
5:17 AM 51.8 °F 8.6 °F 18% 30.16 in 10.0 mi East 8.1 mph - N/A   Clear
5:37 AM 51.8 °F 6.8 °F 16% 30.16 in 10.0 mi ESE 11.5 mph - N/A   Clear
5:57 AM 51.8 °F 6.8 °F 16% 30.15 in 10.0 mi ESE 10.4 mph 16.1 mph N/A   Clear
6:17 AM 51.8 °F 8.6 °F 18% 30.16 in 10.0 mi East 8.1 mph - N/A   Clear
6:37 AM 51.8 °F 8.6 °F 18% 30.16 in 10.0 mi East 8.1 mph - N/A   Clear
6:57 AM 53.6 °F 5.0 °F 14% 30.15 in 10.0 mi SE 13.8 mph 19.6 mph N/A   Clear
7:17 AM 53.6 °F 3.2 °F 13% 30.16 in 10.0 mi SE 12.7 mph 23.0 mph N/A   Clear
7:37 AM 55.4 °F 5.0 °F 13% 30.15 in 10.0 mi SSE 10.4 mph 18.4 mph N/A   Clear
7:57 AM 55.4 °F 5.0 °F 13% 30.16 in 10.0 mi SSE 11.5 mph 23.0 mph N/A   Clear
8:17 AM 55.4 °F 5.0 °F 13% 30.16 in 10.0 mi ESE 12.7 mph 23.0 mph N/A   Clear
8:37 AM 55.4 °F 6.8 °F 14% 30.16 in 10.0 mi SE 8.1 mph 19.6 mph N/A   Clear
8:57 AM 57.2 °F 6.8 °F 13% 30.17 in 10.0 mi South 6.9 mph - N/A   Clear
9:37 AM 57.2 °F 8.6 °F 14% 30.16 in 10.0 mi South 9.2 mph 20.7 mph N/A   Clear
10:57 AM 62.6 °F 8.6 °F 12% 30.15 in 10.0 mi SSE 5.8 mph 20.7 mph N/A   Clear
11:17 AM 62.6 °F 6.8 °F 11% 30.14 in 10.0 mi SE 17.3 mph 31.1 mph N/A   Clear
11:37 AM 62.6 °F 8.6 °F 12% 30.14 in 10.0 mi SE 12.7 mph 20.7 mph N/A   Clear
11:57 AM 62.6 °F 8.6 °F 12% 30.15 in 10.0 mi SSW 13.8 mph 27.6 mph N/A   Clear
12:17 PM 62.6 °F 8.6 °F 12% 30.14 in 7.0 mi South 21.9 mph 41.4 mph N/A   Clear
12:39 PM 62.6 °F 8.6 °F 12% 30.15 in 10.0 mi South 8.1 mph 35.7 mph N/A   Clear
1:17 PM 62.6 °F 8.6 °F 12% 30.14 in 10.0 mi South 17.3 mph 31.1 mph N/A   Scattered Clouds
1:38 PM 64.4 °F 10.4 °F 12% 30.14 in 10.0 mi SE 15.0 mph 28.8 mph N/A   Scattered Clouds
3:00 PM 64.4 °F 10.4 °F 12% 30.12 in 7.0 mi SSW 18.4 mph 34.5 mph N/A   Clear
3:20 PM 64.4 °F 12.2 °F 13% 30.13 in 10.0 mi SSW 5.8 mph 27.6 mph N/A   Scattered Clouds
4:18 PM 64.4 °F 10.4 °F 12% 30.12 in 10.0 mi South 10.4 mph 23.0 mph N/A   Clear
4:38 PM 64.4 °F 10.4 °F 12% 30.12 in 10.0 mi South 12.7 mph 27.6 mph N/A   Clear
4:58 PM 64.4 °F 10.4 °F 12% 30.12 in 10.0 mi SSE 9.2 mph 29.9 mph N/A   Clear
5:18 PM 64.4 °F 8.6 °F 11% 30.11 in 10.0 mi SW 19.6 mph 31.1 mph N/A   Clear
5:38 PM 64.4 °F 6.8 °F 10% 30.11 in 10.0 mi South 10.4 mph 17.3 mph N/A   Clear
5:57 PM 64.4 °F 6.8 °F 10% 30.11 in 10.0 mi South 9.2 mph 27.6 mph N/A   Clear
6:17 PM 64.4 °F 8.6 °F 11% 30.11 in 10.0 mi SSW 8.1 mph 23.0 mph N/A   Clear
6:57 PM 64.4 °F 8.6 °F 11% 30.11 in 10.0 mi South 9.2 mph 19.6 mph N/A   Clear
7:17 PM 62.6 °F 8.6 °F 12% 30.11 in 10.0 mi SSW 5.8 mph - N/A   Clear
7:57 PM 62.6 °F 8.6 °F 12% 30.12 in 10.0 mi Calm Calm - N/A   Clear
8:17 PM 62.6 °F 8.6 °F 12% 30.12 in 10.0 mi SSW 8.1 mph - N/A   Clear
8:37 PM 62.6 °F 8.6 °F 12% 30.12 in 10.0 mi Calm Calm - N/A   Clear
9:57 PM 62.6 °F 8.6 °F 12% 30.13 in 10.0 mi South 8.1 mph - N/A   Clear
10:37 PM 60.8 °F 8.6 °F 13% 30.15 in 10.0 mi South 5.8 mph - N/A   Clear
10:57 PM 60.8 °F 8.6 °F 13% 30.15 in 10.0 mi Calm Calm - N/A   Clear
11:18 PM 60.8 °F 8.6 °F 13% 30.15 in 10.0 mi SW 5.8 mph 16.1 mph N/A   Clear
11:37 PM 59.0 °F 8.6 °F 14% 30.15 in 10.0 mi SSE 11.5 mph 18.4 mph N/A   Clear